Flag for Canada Weather past 2 weeks in Whistler, British Columbia, Canada

Now
44 °F

Quite cool.


Feels Like: 44 °F
Forecast: 34 / 42 °F
Wind: 2 mph from North

Location: Squamish Airport

Current Time: Jan 26, 2015 at 12:59:59 AM

Latest Report: Jan 26, 2015 at 12:00 AM


Visibility: N/A

Pressure: 30.04 "Hg

Humidity: 91%

Dew point: 42 °F

Location of WhistlerLocation

Historic Weather in Whistler — Graph

°F

Whistler temperature yesterday

Maximum temperature yesterday: 54 °F (at 12:00 PM)
Minimum temperature yesterday: 44 °F (at 11:00 PM)
Average temperature yesterday: 49 °F

Past Weeks' High & Low Weather Summary

 TemperatureHumidityPressure
High54 °F (Jan 25, 12:00 PM)100% (Jan 11, 12:00 AM)30.52 "Hg (Jan 11, 12:00 AM)
Low28 °F (Jan 15, 5:00 AM)68% (Jan 20, 2:00 PM)29.51 "Hg (Jan 18, 2:00 AM)
Average38 °F97%30.20 "Hg
* Reported Midnight between Jan 10 and Jan 11 — Midnight between Jan 25 and Jan 26, Whistler, Weather by CustomWeather, © 2014

Note: Actual official high and low records may vary slightly from our data, if they occured in-between our weather recording intervals... More about our weather records

Advertising

Whistler weather history for previous 24 hours

 ConditionsComfort  
Time TempWeatherWind HumidityBarometerVisibility
12:00 AM
Jan 26
44 °FQuite cool.2 mph91%30.04 "HgN/A
11:00 PM
Jan 25
44 °FQuite cool.2 mph96%30.05 "HgN/A
10:00 PM45 °FCool.2 mph96%30.07 "HgN/A
9:00 PM46 °FCool.3 mph95%30.08 "HgN/A
8:00 PM46 °FCool.2 mph96%30.09 "HgN/A
7:00 PM47 °FCool.3 mph96%30.10 "HgN/A
6:00 PM48 °FCool.3 mph95%30.10 "HgN/A
5:00 PM50 °FCool.5 mph93%30.10 "HgN/A
4:00 PM49 °FCool.5 mph98%30.11 "HgN/A
3:00 PM52 °FCool.2 mph90%30.12 "HgN/A
2:00 PM53 °FCool.2 mph89%30.13 "HgN/A
1:00 PM54 °FCool.2 mph87%30.14 "HgN/A
12:00 PM54 °FCool.1 mph88%30.16 "HgN/A
11:00 AM51 °FCool.2 mph95%30.16 "HgN/A
10:00 AM49 °FCool.2 mph100%30.15 "HgN/A
9:00 AM47 °FCool.1 mph100%30.15 "HgN/A
8:00 AM47 °FCool.1 mph99%30.15 "HgN/A
7:00 AM50 °FCool.3 mph97%30.14 "HgN/A
6:00 AM50 °FCool.5 mph97%30.14 "HgN/A
5:00 AM51 °FCool.5 mph97%30.14 "HgN/A
4:00 AM52 °FCool.7 mph96%30.14 "HgN/A
3:00 AM49 °FCool.2 mph100%30.14 "HgN/A
2:00 AM47 °FCool.1 mph100%30.13 "HgN/A
1:00 AM45 °FCool.2 mph100%30.14 "HgN/A
12:00 AM44 °FQuite cool.3 mph99%30.14 "HgN/A
Weather by CustomWeather, © 2014

See weather overviewHow to use our weather pages